Location: Palermo
(38.1157°N, 13.3613°E)
Time: 10:39:31
(UTC+02:00)

ISS - Visible Passes

Search period start: 09 May 2021 00:00
Search period end: 19 May 2021 00:00
Orbit: 418 x 421 km, 51.6° (Epoch: 09 May)

Date Brightness Start Highest point End Pass type
(mag) Time Alt. Az. Time Alt. Az. Time Alt. Az.
09 May -0.7 05:15:28 10° NNW 05:17:21 14° NNE 05:19:14 10° NE visible
10 May -0.5 04:28:32 10° N 04:29:39 11° NNE 04:30:46 10° NE visible
11 May -1.3 05:16:46 10° NNW 05:19:40 26° NNE 05:22:34 10° E visible
12 May -0.8 04:29:35 10° NNW 04:32:03 19° NNE 04:34:31 10° ENE visible
13 May -0.5 03:42:30 10° NNW 03:44:24 14° NNE 03:46:18 10° NE visible
13 May -3.3 05:18:21 10° NW 05:21:43 68° NE 05:25:05 10° ESE visible
14 May -0.3 02:55:33 10° N 02:56:41 11° NNE 02:57:49 10° NE visible
14 May -2.3 04:31:01 10° NW 04:34:14 39° NE 04:37:26 10° ESE visible
14 May -3.0 21:13:18 10° SSW 21:16:17 30° SE 21:19:18 10° ENE visible
14 May -1.7 22:50:07 10° W 22:53:05 28° NNW 22:55:36 13° NNE visible
15 May -1.4 03:43:46 10° NNW 03:46:41 26° NNE 03:49:34 10° E visible
15 May -3.1 05:20:25 10° WNW 05:23:32 35° SW 05:26:38 10° SSE visible
15 May -2.6 22:02:19 10° WSW 22:05:32 44° NW 22:08:47 10° NE visible
15 May -0.2 23:41:43 10° NW 23:43:02 12° NNW 23:44:22 10° N visible
16 May -0.9 02:56:35 10° NNW 02:59:04 19° NNE 03:01:32 10° ENE visible
16 May -3.9 04:32:48 10° NW 04:36:09 66° SW 04:39:29 10° SE visible
16 May -3.6 21:14:42 10° SW 21:18:03 78° NW 21:21:25 10° NE visible
16 May -0.5 22:53:18 10° WNW 22:55:19 15° NNW 22:57:22 10° NNE visible
17 May -0.5 02:09:29 10° NNW 02:11:23 14° NNE 02:13:17 10° NE visible
17 May -3.5 03:45:20 10° NW 03:48:42 68° NE 03:52:04 10° ESE visible
17 May -0.9 22:05:06 10° WNW 22:07:39 20° NNW 22:10:14 10° NNE visible
18 May -0.2 01:22:32 10° N 01:22:50 11° N 01:22:50 11° N visible
18 May -1.5 21:17:05 10° W 21:20:03 28° NNW 21:23:01 10° NNE visible
